User: anonymous   Login
Location: Ostrava
(49.8330°N, 18.2830°E)
Time: 04:17:54
(UTC+01:00)
Language:

Cosmos 2219 Rocket - Orbit

View from above orbital plane
View from above orbital plane
View from above satellite
View from above satellite

Ground track
Ground track

The orbit data is extracted from the following two-line orbital elements,

1 22220U 92076B   18051.84814522 -.00000089  00000-0 -20758-4 0  9996
2 22220  70.9975 255.8244 0015093 255.9083 193.2969 14.16425304305981
Epoch (UTC): 20 February 2018 20:21:19
Eccentricity: 0.0015093
inclination: 70.9975°
perigee height: 826 km
apogee height: 848 km
right ascension of ascending node: 255.8244°
argument of perigee: 255.9083°
revolutions per day: 14.16425304
mean anomaly at epoch: 193.2969°
orbit number at epoch: 30598

The dashed part of the orbit path shows where the satellite is in the earth's shadow,  

DLR